CAPE
2 0 nan nan nan 2 4 8 4 4 2 2 3 3 7 14 6 6 8 1 1 0 1 3 3 4 9 34 46 46 50 50 41 41 40 39 32 32 20 12 12 8 14 27 27 25 18 19 19 3 nan nan nan nan 2 11 11 5 nan 0 0 1 nan nan nan nan nan nan nan nan 0 46 54 54 39 48 51 51 142 222 222 195 100 44 44 6
2 0 nan nan nan 3 8 8 4 4 1 2 4 4 9 8 5 5 2 0 0 1 3 13 13 18 14 25 47 47 50 52 50 50 45 39 29 29 21 13 13 9 13 26 26 28 24 32 32 5 nan nan nan nan 1 9 9 7 nan nan nan 0 1 nan nan nan nan nan nan nan nan 15 42 42 39 46 43 43 83 121 121 101 59 17 17 nan
2 0 nan nan nan 4 9 8 3 3 2 3 10 10 10 8 4 4 3 1 1 2 6 13 13 21 20 29 54 54 53 63 66 66 51 38 28 28 22 14 14 9 13 22 22 32 23 24 24 3 nan nan nan nan 1 7 7 5 nan nan nan nan nan nan nan nan nan nan nan nan nan 1 18 18 18 37 40 40 54 27 27 38 8 0 0 nan
2 nan nan 0 0 4 9 7 2 2 2 8 13 13 13 7 5 5 6 3 3 8 6 3 3 3 8 18 34 34 42 58 57 57 47 34 27 27 22 15 15 10 13 24 24 33 23 19 19 1 nan nan nan nan 1 6 6 2 nan nan nan nan nan nan nan nan nan nan nan nan nan nan 3 3 3 8 15 15 5 2 2 9 2 0 0 nan
2 0 nan 0 0 6 11 8 2 2 4 10 13 13 8 6 7 7 7 9 9 10 3 nan nan nan 3 6 15 15 28 35 41 41 35 30 27 27 24 15 15 12 14 28 28 34 23 14 14 nan nan nan nan nan 0 5 5 2 nan nan nan nan nan nan nan nan nan nan nan nan nan nan nan nan nan nan 1 1 0 nan nan 4 6 nan nan nan
1 0 0 2 2 9 12 7 3 3 7 13 13 13 7 6 7 7 10 10 10 10 5 3 3 1 1 2 13 13 19 22 25 25 27 30 29 29 26 19 19 12 14 29 29 34 23 12 12 nan nan nan nan nan nan 5 5 2 nan nan nan nan nan nan nan nan nan nan nan nan nan nan nan nan nan nan nan nan nan nan nan nan 9 nan nan nan
2 2 2 4 4 11 12 6 4 4 8 13 10 10 5 5 10 10 14 12 12 7 3 4 4 4 1 1 7 7 12 15 25 25 29 34 28 28 29 22 22 15 14 28 28 31 25 12 12 nan nan nan nan nan nan 4 4 1 nan nan nan nan nan nan nan nan nan nan nan nan nan nan nan nan nan nan nan nan nan nan nan nan 6 2 2 nan
5 4 3 3 3 14 14 6 8 8 13 16 10 10 9 8 8 8 7 5 5 6 6 5 5 3 nan 1 nan nan nan 0 14 14 24 20 24 24 28 26 26 24 25 41 41 40 31 9 9 nan nan nan nan nan nan 2 2 nan nan nan nan nan nan nan nan nan nan nan nan nan nan nan nan nan nan nan nan nan nan nan nan nan nan nan nan 0
7 5 4 4 4 14 16 7 6 6 18 15 14 14 10 11 8 8 1 0 0 2 3 3 3 3 nan nan nan nan nan 3 11 11 19 14 17 17 27 30 30 29 29 41 41 40 33 8 8 nan nan nan nan nan nan 2 2 nan nan nan nan nan nan nan nan nan nan nan nan nan nan nan nan nan nan nan nan nan nan nan nan nan nan nan nan nan
6 5 5 7 7 14 19 9 5 5 17 19 19 19 22 15 5 5 2 0 0 0 0 3 3 3 nan 0 0 0 nan 2 9 9 24 40 41 41 36 25 25 18 21 36 36 44 32 8 8 nan nan nan nan nan 0 2 2 nan nan nan nan nan nan nan nan nan nan nan nan nan nan nan nan nan nan nan nan nan nan nan nan nan nan nan nan nan
9 6 7 11 11 16 19 13 9 9 16 14 8 8 7 11 8 8 3 1 1 0 1 2 2 3 2 0 nan nan 1 4 7 7 11 43 53 53 43 28 28 18 12 33 33 37 29 6 6 nan nan nan nan nan 0 nan nan nan nan nan nan nan nan nan nan nan nan nan nan nan nan nan nan nan nan nan nan nan nan nan nan nan nan nan nan nan
9 7 8 10 10 17 17 10 8 8 12 9 6 6 6 8 13 13 8 3 3 1 2 2 2 2 2 2 2 2 9 16 16 16 39 61 48 48 39 29 29 21 38 49 49 39 24 6 6 nan nan nan nan nan nan nan nan nan nan nan nan nan nan nan nan nan nan nan nan nan nan nan nan nan nan nan nan nan nan nan nan nan nan nan nan nan
7 7 9 13 13 17 14 7 8 8 8 9 8 8 7 6 10 10 13 5 5 2 2 2 2 1 0 0 11 11 17 14 18 18 28 63 43 43 36 42 42 74 89 82 82 61 26 9 9 0 nan nan nan nan nan nan nan nan nan nan nan nan nan nan nan nan nan nan nan nan nan nan nan nan nan nan nan nan nan nan nan nan nan nan nan nan
9 7 10 12 12 11 12 9 9 9 11 8 8 8 8 7 7 7 7 3 3 2 3 2 2 1 nan 2 22 22 8 5 5 5 8 13 28 28 41 52 52 126 133 108 108 82 38 10 10 2 nan 0 2 2 nan nan nan nan nan nan nan nan nan nan nan nan nan nan nan nan nan nan nan nan nan nan nan nan nan nan nan nan nan nan nan nan
8 10 12 12 12 11 12 10 9 9 10 7 9 9 11 9 9 9 7 4 4 3 3 1 1 0 nan 21 17 17 8 5 4 4 4 5 4 4 12 29 29 137 135 100 100 84 52 14 14 1 1 3 4 4 nan nan nan nan nan nan nan nan nan nan nan nan nan nan nan nan nan nan nan nan nan nan nan nan nan nan nan nan nan nan nan nan
7 11 14 13 13 11 8 9 7 7 7 11 13 13 12 14 10 10 7 5 5 6 4 1 1 nan 0 22 20 20 5 4 5 5 4 3 2 2 8 15 15 99 108 84 84 80 65 18 18 0 11 nan nan nan nan nan nan nan nan nan nan nan nan nan nan nan nan nan nan nan nan nan nan nan nan nan nan nan nan nan nan nan nan nan nan nan
7 10 13 12 12 10 7 8 9 9 10 11 12 12 12 16 15 15 11 9 9 9 7 2 2 0 nan 0 3 3 1 3 5 5 4 3 2 2 6 10 10 65 86 85 85 79 60 16 16 nan 18 nan nan nan nan nan nan nan nan nan nan nan nan nan nan nan nan nan nan nan nan nan nan nan nan nan nan nan nan nan nan nan nan nan nan nan
9 10 9 10 10 8 8 8 9 9 13 12 12 12 10 15 19 19 14 15 15 13 8 5 5 2 0 0 0 0 nan 4 5 5 3 3 2 2 5 10 10 65 101 86 86 83 50 17 17 6 5 nan nan nan nan nan nan nan nan nan nan nan nan nan nan nan nan nan nan nan nan nan nan nan nan nan nan nan nan nan nan nan nan nan nan nan
10 9 10 9 9 7 9 8 9 9 10 11 12 12 12 17 17 17 15 15 15 15 9 5 5 3 1 0 nan nan nan 4 6 6 3 3 3 3 4 9 9 63 103 74 74 89 55 17 17 nan nan nan nan nan nan nan nan nan nan nan nan nan nan nan nan nan nan nan nan nan nan nan nan nan nan nan nan nan nan nan nan nan nan nan nan nan
9 8 8 7 7 8 7 8 10 10 13 15 17 17 14 19 15 15 13 15 15 16 11 6 6 2 1 0 nan nan nan 3 4 4 3 3 3 3 6 9 9 44 98 69 69 89 47 13 13 nan nan nan nan nan nan nan nan nan nan nan nan nan nan nan nan nan nan nan nan nan nan nan nan nan nan nan nan nan nan nan nan nan nan nan nan nan
8 5 5 8 8 7 9 6 9 9 20 24 18 18 20 19 13 13 9 13 13 14 11 6 6 3 1 0 nan nan nan 2 3 3 3 3 3 3 6 9 9 23 70 83 83 93 42 11 11 7 nan nan nan nan nan nan nan nan nan nan nan nan nan nan nan nan nan nan nan nan nan nan nan nan nan nan nan nan nan nan nan nan nan nan nan nan
4 5 4 8 8 11 14 8 19 19 24 29 23 23 24 17 9 9 9 11 11 14 11 6 6 2 2 0 nan nan nan 3 2 2 3 3 3 3 4 11 11 14 61 87 87 84 41 14 14 10 nan nan nan nan nan nan nan nan nan nan nan nan nan nan nan nan nan nan nan nan nan nan nan nan nan nan nan nan nan nan nan nan nan nan nan nan
7 8 9 11 11 13 15 12 15 15 23 24 35 35 20 14 11 11 11 13 13 13 9 5 5 3 2 0 nan nan nan 3 3 3 3 2 2 2 4 14 14 14 69 87 87 86 46 16 16 6 nan nan nan nan nan nan nan nan nan nan nan nan nan nan nan nan nan nan nan nan nan nan nan nan nan nan nan nan nan nan nan nan nan nan nan nan
9 9 11 10 10 12 15 13 13 13 18 26 26 26 20 19 14 14 15 16 16 15 10 6 6 4 1 nan nan nan 0 3 3 3 4 3 4 4 5 11 11 13 46 90 90 95 62 23 23 13 nan nan nan nan nan nan nan nan nan nan nan nan nan nan nan nan nan nan nan nan nan nan nan nan nan nan nan nan nan nan nan nan nan nan nan nan
6 11 10 10 10 27 19 14 23 23 24 24 19 19 22 30 33 33 24 18 18 15 8 5 5 1 0 1 1 1 12 40 24 24 10 9 9 9 5 8 8 12 20 83 83 111 81 33 33 17 6 nan nan nan nan nan nan nan nan nan nan nan nan nan nan nan nan nan nan nan nan nan nan nan nan nan nan nan nan nan nan nan nan nan nan nan
31 24 17 32 32 68 81 96 94 94 70 29 19 19 20 24 28 28 20 14 14 12 8 1 1 0 0 1 5 5 15 22 15 15 7 6 5 5 1 7 7 10 12 45 45 125 88 32 32 24 18 0 nan nan nan nan nan nan nan nan nan nan nan nan nan nan nan nan nan nan nan nan nan nan nan nan nan nan nan nan nan nan nan nan nan nan
63 60 70 78 78 80 80 82 88 88 94 71 31 31 22 21 19 19 13 11 11 10 3 1 1 0 1 1 2 2 2 11 16 16 7 3 4 4 4 13 13 19 8 6 6 120 76 30 30 30 25 11 nan nan nan nan nan nan nan nan nan nan nan nan nan nan nan nan nan nan nan nan nan nan nan nan nan nan nan nan nan nan nan nan nan nan
51 51 53 56 56 59 66 72 74 74 70 70 81 81 51 20 12 12 9 8 8 8 3 1 1 2 1 0 0 0 nan 7 10 10 5 2 4 4 7 17 17 22 8 0 0 60 64 35 35 32 36 18 nan nan nan nan nan nan nan nan nan nan nan nan nan nan nan nan nan nan nan nan nan nan nan nan nan nan nan nan nan nan nan nan nan nan
36 38 41 48 48 50 54 52 50 50 51 58 71 71 50 11 9 9 8 9 9 5 4 3 3 3 1 0 nan nan nan 7 6 6 2 2 5 5 11 11 11 14 13 nan nan 3 24 40 40 52 53 13 0 0 nan nan nan nan nan nan nan nan nan nan nan nan nan nan nan nan nan nan nan nan nan nan nan nan nan nan nan nan nan nan nan nan
13 25 29 33 33 37 35 23 31 31 42 52 56 56 40 10 9 9 11 10 10 6 5 4 4 2 1 0 nan nan nan 3 3 3 3 1 6 6 8 6 6 8 14 0 0 nan nan 4 4 49 49 7 8 8 3 nan nan nan nan nan nan nan nan nan nan nan nan nan nan nan nan nan nan nan nan nan nan nan nan nan nan nan nan nan nan nan
1 1 2 9 9 14 9 4 14 14 31 41 44 44 28 13 12 12 12 9 9 5 3 2 2 2 2 0 nan nan 2 1 6 6 3 2 3 3 4 3 3 5 10 0 0 nan nan nan nan 0 19 17 17 17 17 6 6 nan nan nan nan nan nan nan nan nan nan nan nan nan nan nan nan nan nan nan nan nan nan nan nan nan nan nan nan nan
1 1 1 3 3 3 1 2 0 0 2 5 8 8 15 14 12 12 6 7 7 5 3 2 2 2 2 3 1 1 0 nan 7 7 13 2 4 4 6 4 4 3 5 8 8 3 6 3 3 nan 2 30 29 29 23 7 7 nan nan nan nan nan nan nan nan nan nan nan nan nan nan nan nan nan nan nan nan nan nan nan nan nan nan nan nan nan
5 3 2 2 2 1 1 0 0 0 3 2 4 4 5 6 12 12 8 4 4 3 3 3 3 2 1 1 0 0 0 nan 9 9 20 5 3 3 4 3 3 3 3 5 5 6 1 nan nan nan 7 9 17 17 19 3 3 nan nan nan nan nan nan nan nan nan nan nan nan nan nan nan nan nan nan nan nan nan nan nan nan nan nan nan nan nan
1 3 3 1 1 0 nan nan 0 0 1 2 3 3 2 2 4 4 6 3 3 3 2 3 3 2 2 1 0 0 nan nan 7 7 16 6 4 4 2 3 3 3 3 3 3 5 3 nan nan 9 10 0 2 2 10 4 4 nan nan nan nan nan nan nan nan nan nan nan nan nan nan nan nan nan nan nan nan nan nan nan nan nan nan nan nan nan
nan 2 2 0 0 nan 0 nan 0 0 1 1 1 1 0 0 1 1 2 3 3 3 2 3 3 4 3 1 0 0 nan nan 2 2 12 8 4 4 2 3 3 4 3 2 2 4 5 nan nan 8 14 1 0 0 7 8 8 0 nan nan nan nan nan nan nan nan nan nan nan nan nan nan nan nan nan nan nan nan nan nan nan nan nan nan nan nan
0 0 0 nan nan 0 nan 0 0 0 0 nan nan nan nan 0 0 0 0 1 1 3 5 4 4 3 3 2 0 0 nan nan 1 1 8 6 3 3 2 2 2 3 2 2 2 2 3 1 1 1 8 1 1 1 5 8 8 0 1 1 1 nan nan nan nan nan nan nan nan nan nan nan nan nan nan nan nan nan nan nan nan nan nan nan nan nan
0 nan nan nan nan nan 0 nan nan nan nan nan nan nan nan nan nan nan nan 0 0 0 1 5 5 5 8 1 0 0 nan nan nan nan 3 3 2 2 1 1 1 3 2 2 2 2 3 1 1 nan 5 2 6 6 8 8 8 3 3 1 1 nan nan nan nan nan nan nan nan nan nan nan nan nan nan nan nan nan nan nan nan nan nan nan nan nan
nan 0 nan nan nan nan nan nan nan nan 0 nan nan nan nan nan nan nan nan nan nan nan 0 0 0 0 7 9 2 2 nan nan 0 0 1 1 1 1 1 0 0 2 2 2 2 2 2 2 2 nan 1 1 3 3 6 10 10 3 0 nan nan nan nan nan nan nan nan nan nan nan nan nan nan nan nan nan nan nan nan nan nan nan nan nan nan nan
nan nan nan 0 0 nan nan nan nan nan nan nan nan nan nan nan nan nan nan nan nan nan nan nan nan nan nan 0 3 3 2 0 nan nan 0 1 1 1 0 0 0 0 2 3 3 3 2 3 3 0 nan 9 9 9 4 0 0 nan nan nan nan nan nan nan nan nan nan nan nan nan nan nan nan nan nan nan nan nan nan nan nan nan nan nan nan nan
0 nan nan 1 1 nan nan nan nan nan nan nan 0 0 nan nan nan nan nan nan nan nan nan nan nan nan nan 0 0 0 0 nan 0 0 nan 0 0 0 0 0 0 0 2 2 2 2 2 3 3 2 0 10 8 8 1 nan nan nan nan nan nan nan nan nan nan nan nan nan nan nan nan nan nan nan nan nan nan nan nan nan nan nan nan nan nan nan
1 nan nan nan nan 0 0 nan nan nan nan nan nan nan nan nan nan nan nan nan nan nan nan nan nan nan nan nan nan nan nan nan 1 1 nan nan nan nan nan 0 0 0 1 2 2 2 1 2 2 3 1 nan nan nan nan nan nan nan nan nan nan nan nan nan nan nan nan nan nan nan nan nan nan nan nan nan nan nan nan nan nan nan nan nan nan nan
6 1 nan nan nan nan nan nan 0 0 nan nan nan nan nan nan nan nan nan nan nan nan nan nan nan nan nan 1 3 3 2 nan 1 1 0 nan nan nan nan nan nan 0 1 1 1 1 1 2 2 2 nan nan nan nan nan nan nan nan nan nan nan nan nan nan nan nan nan nan nan nan nan nan nan nan nan nan nan nan nan nan nan nan nan nan nan nan
0 nan nan nan nan nan nan nan 0 0 nan nan nan nan nan nan nan nan nan nan nan nan nan nan nan nan 0 0 0 0 nan nan nan nan 1 nan nan nan nan nan nan 0 1 1 1 1 1 0 0 nan nan nan nan nan nan nan nan nan nan nan nan nan nan nan nan nan nan nan nan nan nan nan nan nan nan nan nan nan nan nan nan nan nan nan nan nan
nan nan nan nan nan nan nan nan nan nan nan nan nan nan nan nan nan nan 0 nan nan nan nan nan nan nan 1 0 nan nan nan nan nan nan nan 0 nan nan nan nan nan nan 1 1 1 1 1 nan nan nan nan nan nan nan nan nan nan nan nan nan nan nan nan nan nan nan nan nan nan nan nan nan nan nan nan nan nan nan nan nan nan nan nan nan nan nan
nan nan nan nan nan nan nan nan nan nan nan nan nan nan nan nan 0 0 nan nan nan nan nan nan nan 0 0 nan nan nan nan nan nan nan nan nan 2 2 nan nan nan nan 1 2 2 1 1 nan nan nan nan nan nan nan nan nan nan nan nan nan nan nan nan nan nan nan nan nan nan nan nan nan nan nan nan nan nan nan nan nan nan nan nan nan nan nan
nan nan nan nan nan nan nan nan nan nan nan nan nan nan nan nan nan nan nan nan nan nan nan nan nan nan nan nan nan nan nan nan nan nan nan nan nan nan nan nan nan nan nan nan nan nan nan nan nan nan nan nan nan nan nan nan nan nan nan nan nan nan nan nan nan nan nan nan nan nan nan nan nan nan nan nan nan nan nan nan nan nan nan nan nan nan
nan nan nan nan nan nan nan nan nan nan nan nan nan nan nan nan nan nan nan nan nan nan nan nan nan nan nan nan nan nan nan nan nan nan nan nan nan nan nan nan nan nan nan nan nan nan nan nan nan nan nan nan nan nan nan nan nan nan nan nan nan nan nan nan nan nan nan nan nan nan nan nan nan nan nan nan nan nan nan nan nan nan nan nan nan nan
nan nan nan nan nan nan nan nan nan nan nan nan nan nan nan nan nan nan nan nan nan nan nan nan nan nan nan nan nan nan nan nan nan nan nan nan nan nan nan nan nan nan nan nan nan nan nan nan nan nan nan nan nan nan nan nan nan nan nan nan nan nan nan nan nan nan nan nan nan nan nan nan nan nan nan nan nan nan nan nan nan nan nan nan nan nan
nan nan nan nan nan nan nan nan nan nan nan nan nan nan nan 0 7 7 nan nan nan nan nan nan nan nan nan nan nan nan nan nan nan nan nan nan nan nan nan nan nan nan nan nan nan nan nan nan nan nan nan nan nan nan nan nan nan nan nan nan nan nan nan nan nan nan nan nan nan nan nan nan nan nan nan nan nan nan nan nan nan nan nan nan nan nan
nan nan nan nan nan nan nan nan nan nan nan nan nan nan nan nan nan nan nan nan nan nan nan nan nan nan nan nan nan nan nan nan nan nan nan nan nan nan nan nan nan nan nan nan nan nan nan nan nan nan 2 nan nan nan nan nan nan nan nan nan nan nan nan nan nan nan nan nan nan nan nan nan nan nan nan nan nan nan nan nan nan nan nan nan nan nan
nan nan nan nan nan nan nan nan nan nan nan nan nan nan nan nan nan nan nan nan nan nan nan nan nan nan nan nan nan nan nan nan nan nan nan nan nan nan nan nan nan 0 nan nan nan nan nan nan nan nan nan 3 0 0 nan nan nan nan nan nan nan nan nan nan nan nan nan nan nan nan nan nan nan nan nan nan nan nan nan nan nan nan nan nan nan nan
CIN
0 0 nan nan nan 0 0 0 0 0 0 -0 0 0 0 0 0 0 0 0 0 0 0 -1 -1 -8 -8 0 0 0 0 0 0 0 0 0 0 0 0 0 0 0 0 0 0 -1 -1 -7 -7 -21 nan nan nan nan 0 0 0 0 nan -114 -114 -117 nan nan nan nan nan nan nan nan -1 -1 -0 -0 0 0 0 0 0 -34 -34 -52 -85 -125 -125 -162
0 0 nan nan nan 0 0 0 0 0 0 0 0 0 0 0 -2 -2 0 0 0 0 0 0 0 -3 -7 -3 0 0 0 0 0 0 0 0 0 0 0 0 0 0 0 0 0 -0 -3 -9 -9 -22 nan nan nan nan 0 0 0 0 nan nan nan -114 -121 nan nan nan nan nan nan nan nan -1 -0 -0 0 0 0 0 0 -54 -54 -78 -99 -135 -135 nan
0 0 nan nan nan 0 0 0 0 0 0 0 0 0 0 0 0 0 0 0 0 0 0 0 0 0 -1 -4 0 0 0 0 0 0 0 0 0 0 0 0 0 0 0 0 0 -0 -5 -17 -17 -27 nan nan nan nan -0 0 0 0 nan nan nan nan nan nan nan nan nan nan nan nan nan -35 -0 -0 -0 -0 -0 -0 -43 -78 -78 -117 -140 -164 -164 nan
0 nan nan 0 0 0 0 0 0 0 -3 -0 0 0 0 0 0 0 -0 0 0 -1 0 0 0 0 -1 -5 0 0 0 0 0 0 0 0 0 0 0 0 0 0 0 0 0 -0 -6 -23 -23 -34 nan nan nan nan 0 0 0 0 nan nan nan nan nan nan nan nan nan nan nan nan nan nan -40 -40 -30 -32 -59 -59 -90 -123 -123 -145 -151 -158 -158 nan
0 0 nan 0 0 0 0 0 0 0 -0 -0 0 0 0 -1 0 0 -2 -3 -3 -1 0 nan nan nan -1 -4 0 0 0 0 0 0 0 0 0 0 0 0 0 0 0 0 0 0 -8 -27 -27 nan nan nan nan nan -0 0 0 0 nan nan nan nan nan nan nan nan nan nan nan nan nan nan nan nan nan nan -110 -110 -117 nan nan -125 -137 nan nan nan
0 0 0 0 0 0 0 0 0 0 -5 -1 0 0 -1 -6 0 0 0 0 0 0 0 0 0 0 0 -2 0 0 0 0 0 0 0 0 0 0 0 0 0 0 0 0 0 0 -8 -30 -30 nan nan nan nan nan nan 0 0 0 nan nan nan nan nan nan nan nan nan nan nan nan nan nan nan nan nan nan nan nan nan nan nan nan -121 nan nan nan
0 0 0 0 0 0 0 0 0 0 -0 0 -3 -3 -1 -6 -3 -3 0 0 0 0 0 -0 -0 0 0 0 0 0 0 0 0 0 0 0 0 0 0 0 0 0 0 0 0 0 -7 -34 -34 nan nan nan nan nan nan 0 0 0 nan nan nan nan nan nan nan nan nan nan nan nan nan nan nan nan nan nan nan nan nan nan nan nan -111 -130 -130 nan
0 0 0 0 0 0 0 0 -5 -5 -5 0 0 0 0 0 -1 -1 -11 -9 -9 -8 -1 0 0 0 nan -9 nan nan nan 0 0 0 0 0 0 0 0 0 0 0 0 0 0 0 -7 -39 -39 nan nan nan nan nan nan 0 0 nan nan nan nan nan nan nan nan nan nan nan nan nan nan nan nan nan nan nan nan nan nan nan nan nan nan nan nan -137
0 0 0 -0 -0 0 0 0 -14 -14 -11 -1 0 0 0 0 0 0 -1 -1 -1 -5 0 0 0 0 nan nan nan nan nan 0 0 0 0 -1 -0 -0 0 0 0 0 0 0 0 0 -11 -40 -40 nan nan nan nan nan nan 0 0 nan nan nan nan nan nan nan nan nan nan nan nan nan nan nan nan nan nan nan nan nan nan nan nan nan nan nan nan nan
0 0 0 0 0 0 0 0 -5 -5 -15 -4 -4 -4 -0 0 0 0 0 0 0 0 0 0 0 0 nan -0 -4 -4 nan 0 0 0 0 0 0 0 0 -0 -0 0 0 0 0 -2 -14 -41 -41 nan nan nan nan nan 0 0 0 nan nan nan nan nan nan nan nan nan nan nan nan nan nan nan nan nan nan nan nan nan nan nan nan nan nan nan nan nan
0 0 0 0 0 0 0 -2 -4 -4 -10 0 0 0 0 0 0 0 0 0 0 0 0 0 0 0 0 0 nan nan 0 0 0 0 0 0 0 0 0 0 0 0 0 0 0 -7 -13 -43 -43 nan nan nan nan nan 0 nan nan nan nan nan nan nan nan nan nan nan nan nan nan nan nan nan nan nan nan nan nan nan nan nan nan nan nan nan nan nan
0 0 0 0 0 0 0 -1 -4 -4 -0 0 0 0 0 0 -2 -2 0 0 0 0 0 0 0 0 0 0 0 0 0 0 -0 -0 -0 -0 -1 -1 -0 -0 -0 0 0 0 0 -6 -12 -42 -42 nan nan nan nan nan nan nan nan nan nan nan nan nan nan nan nan nan nan nan nan nan nan nan nan nan nan nan nan nan nan nan nan nan nan nan nan nan
0 0 0 0 0 0 0 0 0 0 0 0 0 0 0 0 -0 -0 0 0 0 0 0 0 0 0 -0 -0 -0 -0 0 0 0 0 0 0 -0 -0 -0 -0 -0 0 -0 -0 -0 -1 -4 -36 -36 -61 nan nan nan nan nan nan nan nan nan nan nan nan nan nan nan nan nan nan nan nan nan nan nan nan nan nan nan nan nan nan nan nan nan nan nan nan
0 0 0 0 0 0 0 0 0 0 0 0 0 0 0 0 0 0 0 0 0 0 0 0 0 0 nan -1 0 0 -0 -0 0 0 0 0 0 0 0 0 0 0 -0 -0 -0 -1 -3 -31 -31 -47 nan -22 -3 -3 nan nan nan nan nan nan nan nan nan nan nan nan nan nan nan nan nan nan nan nan nan nan nan nan nan nan nan nan nan nan nan nan
0 0 0 0 0 0 0 0 0 0 0 0 0 0 0 0 0 0 0 0 0 0 0 0 0 -0 nan 0 -0 -0 -0 -0 -0 -0 0 -0 0 0 0 0 0 0 -0 -1 -1 -1 -2 -24 -24 -39 -51 -9 -3 -3 nan nan nan nan nan nan nan nan nan nan nan nan nan nan nan nan nan nan nan nan nan nan nan nan nan nan nan nan nan nan nan nan
0 0 0 0 0 0 0 0 0 0 0 0 0 0 0 0 0 0 0 0 0 0 0 0 0 nan -2 -0 -1 -1 -1 -1 -0 -0 0 -0 -0 -0 0 0 0 0 -0 -1 -1 -1 -1 -13 -13 -28 -25 nan nan nan nan nan nan nan nan nan nan nan nan nan nan nan nan nan nan nan nan nan nan nan nan nan nan nan nan nan nan nan nan nan nan nan
-0 0 0 0 0 0 0 0 0 0 0 0 0 0 0 0 0 0 0 0 0 0 0 0 0 0 nan -1 -3 -3 -2 -1 -0 -0 0 -0 -0 -0 -0 0 0 0 -0 -1 -1 -1 -2 -7 -7 nan -11 nan nan nan nan nan nan nan nan nan nan nan nan nan nan nan nan nan nan nan nan nan nan nan nan nan nan nan nan nan nan nan nan nan nan nan
0 0 0 0 0 0 0 0 -0 -0 -0 0 0 0 0 0 0 0 0 0 0 0 0 0 0 0 0 0 0 0 nan -0 -0 -0 -0 -0 -0 -0 -0 0 0 0 -0 -1 -1 -1 -3 -5 -5 -2 -34 nan nan nan nan nan nan nan nan nan nan nan nan nan nan nan nan nan nan nan nan nan nan nan nan nan nan nan nan nan nan nan nan nan nan nan
0 0 0 0 0 0 0 0 0 0 0 0 0 0 0 0 0 0 0 0 0 0 0 0 0 0 0 0 nan nan nan -0 -0 -0 -0 -0 -0 -0 0 0 0 0 -0 -1 -1 -1 -2 -3 -3 nan nan nan nan nan nan nan nan nan nan nan nan nan nan nan nan nan nan nan nan nan nan nan nan nan nan nan nan nan nan nan nan nan nan nan nan nan
0 0 0 0 0 0 0 0 0 0 0 0 0 0 0 0 0 0 0 0 0 0 0 0 0 0 0 0 nan nan nan -1 -0 -0 -0 -0 -0 -0 0 0 0 0 -0 -1 -1 -1 -2 -1 -1 nan nan nan nan nan nan nan nan nan nan nan nan nan nan nan nan nan nan nan nan nan nan nan nan nan nan nan nan nan nan nan nan nan nan nan nan nan
0 0 0 0 0 0 0 0 0 0 0 0 0 0 0 0 0 0 0 0 0 0 0 0 0 0 0 0 nan nan nan -1 -0 -0 -0 -0 -0 -0 0 0 0 0 -0 -1 -1 -1 -2 -2 -2 -0 nan nan nan nan nan nan nan nan nan nan nan nan nan nan nan nan nan nan nan nan nan nan nan nan nan nan nan nan nan nan nan nan nan nan nan nan
0 0 0 0 0 0 0 -0 0 0 0 -0 0 0 0 0 0 0 0 0 0 0 0 0 0 0 0 -0 nan nan nan -1 0 0 -0 -0 -0 -0 -0 -0 -0 0 0 -1 -1 -0 -1 -2 -2 -0 nan nan nan nan nan nan nan nan nan nan nan nan nan nan nan nan nan nan nan nan nan nan nan nan nan nan nan nan nan nan nan nan nan nan nan nan
0 0 0 -0 -0 0 0 0 0 0 0 0 0 0 0 0 0 0 0 0 0 0 0 0 0 0 -1 -1 nan nan nan -1 0 0 0 0 -0 -0 -0 -0 -0 0 0 -1 -1 -0 -0 -1 -1 -1 nan nan nan nan nan nan nan nan nan nan nan nan nan nan nan nan nan nan nan nan nan nan nan nan nan nan nan nan nan nan nan nan nan nan nan nan
-0 -0 -1 -1 -1 -2 -0 0 0 0 0 0 0 0 -1 0 0 0 0 -0 -0 0 -0 -0 -0 0 -0 nan nan nan -2 -0 0 0 0 0 -0 -0 -0 -0 -0 0 0 -1 -1 -0 -0 -0 -0 -0 nan nan nan nan nan nan nan nan nan nan nan nan nan nan nan nan nan nan nan nan nan nan nan nan nan nan nan nan nan nan nan nan nan nan nan nan
-2 -1 -1 -2 -2 -2 -0 -0 0 0 0 -0 -0 -0 -0 0 0 0 0 -0 -0 0 0 0 0 0 -0 0 -1 -1 -1 -0 0 0 0 0 0 0 0 0 0 0 0 -0 -0 -1 -0 -0 -0 -0 -1 nan nan nan nan nan nan nan nan nan nan nan nan nan nan nan nan nan nan nan nan nan nan nan nan nan nan nan nan nan nan nan nan nan nan nan
0 0 0 0 0 0 0 0 0 0 0 0 -0 -0 0 0 0 0 0 0 0 0 0 0 0 0 0 0 -0 -0 -1 -1 -0 -0 0 0 0 0 0 0 0 0 0 -2 -2 -1 -0 -0 -0 -0 -0 -7 nan nan nan nan nan nan nan nan nan nan nan nan nan nan nan nan nan nan nan nan nan nan nan nan nan nan nan nan nan nan nan nan nan nan
0 0 0 0 0 0 0 0 0 0 0 0 0 0 0 -0 0 0 0 0 0 0 0 0 0 -0 0 0 0 0 -1 -1 -0 -0 0 0 0 0 0 0 0 0 -0 -14 -14 -1 -1 -0 -0 -0 -0 -0 nan nan nan nan nan nan nan nan nan nan nan nan nan nan nan nan nan nan nan nan nan nan nan nan nan nan nan nan nan nan nan nan nan nan
0 0 0 0 0 0 0 0 0 0 0 0 0 0 0 0 0 0 0 0 0 0 0 0 0 0 0 0 0 0 nan -0 -0 -0 0 0 0 0 0 0 0 0 0 -0 -0 -4 -3 -1 -1 -0 -0 -0 nan nan nan nan nan nan nan nan nan nan nan nan nan nan nan nan nan nan nan nan nan nan nan nan nan nan nan nan nan nan nan nan nan nan
0 0 0 0 0 0 0 0 0 0 0 0 0 0 0 0 0 0 0 0 0 0 0 0 0 0 0 0 nan nan nan 0 -0 -0 -0 0 0 0 0 0 0 0 0 nan nan -23 -15 -2 -2 -0 -0 -2 -11 -11 nan nan nan nan nan nan nan nan nan nan nan nan nan nan nan nan nan nan nan nan nan nan nan nan nan nan nan nan nan nan nan nan
0 0 0 0 0 0 0 0 0 0 0 0 0 0 0 0 0 0 0 0 0 0 0 0 0 0 0 0 nan nan nan 0 -0 -0 -1 -0 0 0 -0 0 0 0 0 0 0 nan nan -26 -26 -2 -0 -6 -5 -5 -10 nan nan nan nan nan nan nan nan nan nan nan nan nan nan nan nan nan nan nan nan nan nan nan nan nan nan nan nan nan nan nan
0 0 0 0 0 0 0 0 0 0 0 0 0 0 0 0 0 0 0 0 0 0 0 0 0 0 0 0 nan nan 0 -0 -1 -1 -1 -0 0 0 -0 0 0 0 0 0 0 nan nan nan nan -30 -9 -4 -3 -3 -3 -9 -9 nan nan nan nan nan nan nan nan nan nan nan nan nan nan nan nan nan nan nan nan nan nan nan nan nan nan nan nan nan
0 0 0 0 0 0 0 0 0 0 0 0 0 0 0 0 0 0 0 0 0 0 0 0 0 0 0 0 0 0 -0 nan -0 -0 -0 -0 -0 -0 -0 -0 -0 -0 0 0 0 0 -18 -21 -21 nan -23 -7 -3 -3 -3 -7 -7 nan nan nan nan nan nan nan nan nan nan nan nan nan nan nan nan nan nan nan nan nan nan nan nan nan nan nan nan nan
0 0 0 0 0 0 0 0 0 0 0 0 0 0 0 0 0 0 0 0 0 0 0 0 0 0 0 0 0 0 -0 nan 0 0 0 -0 -0 -0 -0 -0 -0 -0 -0 0 0 0 0 nan nan nan -30 -30 -13 -13 -5 -8 -8 nan nan nan nan nan nan nan nan nan nan nan nan nan nan nan nan nan nan nan nan nan nan nan nan nan nan nan nan nan
0 0 0 -0 -0 -0 nan nan 0 0 0 0 0 0 0 0 0 0 0 0 0 0 0 0 0 0 0 0 0 0 nan nan 0 0 0 -0 -0 -0 -0 -0 -0 -0 -0 0 0 0 0 nan nan -17 -24 -45 -32 -32 -12 -1 -1 nan nan nan nan nan nan nan nan nan nan nan nan nan nan nan nan nan nan nan nan nan nan nan nan nan nan nan nan nan
nan 0 0 -0 -0 nan -0 nan 0 0 0 0 0 0 0 0 0 0 0 0 0 0 -0 -0 -0 0 0 0 0 0 nan nan 0 0 0 0 -0 -0 -0 -0 -0 -0 -0 0 0 0 0 nan nan -21 -15 -27 -42 -42 -16 -1 -1 -2 nan nan nan nan nan nan nan nan nan nan nan nan nan nan nan nan nan nan nan nan nan nan nan nan nan nan nan nan
-0 0 -0 nan nan -0 nan 0 0 0 0 nan nan nan nan -0 0 0 0 0 0 0 0 0 0 -0 -0 0 -0 -0 nan nan 0 0 0 0 -0 -0 -0 -0 -0 -0 -0 0 0 0 0 0 0 -39 -16 -18 -25 -25 -17 -2 -2 -3 -3 -2 -2 nan nan nan nan nan nan nan nan nan nan nan nan nan nan nan nan nan nan nan nan nan nan nan nan nan
-0 nan nan nan nan nan 0 nan nan nan nan nan nan nan nan nan nan nan nan -2 -2 -1 0 0 0 0 0 -1 -1 -1 nan nan nan nan 0 -0 -0 -0 -0 -0 -0 -0 0 0 0 0 0 0 0 nan -9 -12 -12 -12 -10 -4 -4 -3 -2 -2 -2 nan nan nan nan nan nan nan nan nan nan nan nan nan nan nan nan nan nan nan nan nan nan nan nan nan
nan 0 nan nan nan nan nan nan nan nan -0 nan nan nan nan nan nan nan nan nan nan nan -0 -0 -0 -1 0 0 -1 -1 nan nan -1 -1 -0 -0 -0 -0 -0 -0 -0 -0 -0 0 0 0 0 0 0 nan -9 -8 -14 -14 -10 -4 -4 -3 -5 nan nan nan nan nan nan nan nan nan nan nan nan nan nan nan nan nan nan nan nan nan nan nan nan nan nan nan
nan nan nan 0 0 nan nan nan nan nan nan nan nan nan nan nan nan nan nan nan nan nan nan nan nan nan nan -1 0 0 -0 -1 nan nan -0 -0 -0 -0 -0 -0 -0 -0 -0 0 0 0 0 0 0 0 nan -7 -8 -8 -12 -8 -8 nan nan nan nan nan nan nan nan nan nan nan nan nan nan nan nan nan nan nan nan nan nan nan nan nan nan nan nan nan
-0 nan nan 0 0 nan nan nan nan nan nan nan 0 0 nan nan nan nan nan nan nan nan nan nan nan nan nan -0 -0 -0 -1 nan -0 -0 nan -0 -0 -0 -0 -0 -0 -0 -0 -0 -0 -0 0 0 0 0 -0 -13 -8 -8 -11 nan nan nan nan nan nan nan nan nan nan nan nan nan nan nan nan nan nan nan nan nan nan nan nan nan nan nan nan nan nan nan
0 nan nan nan nan 0 0 nan nan nan nan nan nan nan nan nan nan nan nan nan nan nan nan nan nan nan nan nan nan nan nan nan -0 -0 nan nan nan nan nan -0 -0 -0 -0 0 0 0 0 0 0 0 0 nan nan nan nan nan nan nan nan nan nan nan nan nan nan nan nan nan nan nan nan nan nan nan nan nan nan nan nan nan nan nan nan nan nan nan
0 0 nan nan nan nan nan nan 0 0 nan nan nan nan nan nan nan nan nan nan nan nan nan nan nan nan nan -3 -2 -2 -3 nan -1 -1 -1 nan nan nan nan nan nan -0 -0 -0 -0 -0 0 0 0 0 nan nan nan nan nan nan nan nan nan nan nan nan nan nan nan nan nan nan nan nan nan nan nan nan nan nan nan nan nan nan nan nan nan nan nan nan
0 nan nan nan nan nan nan nan 0 0 nan nan nan nan nan nan nan nan nan nan nan nan nan nan nan nan -0 -1 -3 -3 nan nan nan nan -1 nan nan nan nan nan nan -0 -0 0 0 0 -0 -0 -0 nan nan nan nan nan nan nan nan nan nan nan nan nan nan nan nan nan nan nan nan nan nan nan nan nan nan nan nan nan nan nan nan nan nan nan nan nan
nan nan nan nan nan nan nan nan nan nan nan nan nan nan nan nan nan nan -0 nan nan nan nan nan nan nan -0 -0 nan nan nan nan nan nan nan -1 nan nan nan nan nan nan -0 0 0 0 -0 nan nan nan nan nan nan nan nan nan nan nan nan nan nan nan nan nan nan nan nan nan nan nan nan nan nan nan nan nan nan nan nan nan nan nan nan nan nan nan
nan nan nan nan nan nan nan nan nan nan nan nan nan nan nan nan 0 0 nan nan nan nan nan nan nan -1 -0 nan nan nan nan nan nan nan nan nan 0 0 nan nan nan nan 0 0 0 0 0 nan nan nan nan nan nan nan nan nan nan nan nan nan nan nan nan nan nan nan nan nan nan nan nan nan nan nan nan nan nan nan nan nan nan nan nan nan nan nan
nan nan nan nan nan nan nan nan nan nan nan nan nan nan nan nan nan nan nan nan nan nan nan nan nan nan nan nan nan nan nan nan nan nan nan nan nan nan nan nan nan nan nan nan nan nan nan nan nan nan nan nan nan nan nan nan nan nan nan nan nan nan nan nan nan nan nan nan nan nan nan nan nan nan nan nan nan nan nan nan nan nan nan nan nan nan
nan nan nan nan nan nan nan nan nan nan nan nan nan nan nan nan nan nan nan nan nan nan nan nan nan nan nan nan nan nan nan nan nan nan nan nan nan nan nan nan nan nan nan nan nan nan nan nan nan nan nan nan nan nan nan nan nan nan nan nan nan nan nan nan nan nan nan nan nan nan nan nan nan nan nan nan nan nan nan nan nan nan nan nan nan nan
nan nan nan nan nan nan nan nan nan nan nan nan nan nan nan nan nan nan nan nan nan nan nan nan nan nan nan nan nan nan nan nan nan nan nan nan nan nan nan nan nan nan nan nan nan nan nan nan nan nan nan nan nan nan nan nan nan nan nan nan nan nan nan nan nan nan nan nan nan nan nan nan nan nan nan nan nan nan nan nan nan nan nan nan nan nan
nan nan nan nan nan nan nan nan nan nan nan nan nan nan nan 0 0 0 nan nan nan nan nan nan nan nan nan nan nan nan nan nan nan nan nan nan nan nan nan nan nan nan nan nan nan nan nan nan nan nan nan nan nan nan nan nan nan nan nan nan nan nan nan nan nan nan nan nan nan nan nan nan nan nan nan nan nan nan nan nan nan nan nan nan nan nan
nan nan nan nan nan nan nan nan nan nan nan nan nan nan nan nan nan nan nan nan nan nan nan nan nan nan nan nan nan nan nan nan nan nan nan nan nan nan nan nan nan nan nan nan nan nan nan nan nan nan -0 nan nan nan nan nan nan nan nan nan nan nan nan nan nan nan nan nan nan nan nan nan nan nan nan nan nan nan nan nan nan nan nan nan nan nan
nan nan nan nan nan nan nan nan nan nan nan nan nan nan nan nan nan nan nan nan nan nan nan nan nan nan nan nan nan nan nan nan nan nan nan nan nan nan nan nan nan -0 nan nan nan nan nan nan nan nan nan 0 -0 -0 nan nan nan nan nan nan nan nan nan nan nan nan nan nan nan nan nan nan nan nan nan nan nan nan nan nan nan nan nan nan nan nan
Wind_Speed
8 8 9 12 12 11 9 11 11 10 10 9 9 9 10 11 11 11 14 13 13 13 13 12 11 11 11 13 15 16 18 19 20 21 21 20 20 19 19 19 19 19 18 14 9 5 3 2 2 4 7 9 13 17 20 19 15 12 13 15 16 17 18 19 19 20 21 22 24 27 31 35 38 39 39 37 34 32 30 27 26 26 25 25 25 25
8 8 8 11 12 11 9 10 11 10 10 10 10 10 10 11 11 10 11 12 13 13 12 12 12 12 12 12 13 15 17 18 19 20 20 19 19 18 18 18 19 19 18 15 11 7 3 1 1 4 6 9 13 16 20 19 16 13 14 15 16 17 17 18 19 20 20 21 23 26 29 32 35 37 37 36 35 33 30 27 26 25 25 25 25 26
8 8 8 10 11 11 9 10 10 10 10 11 11 11 12 12 11 10 9 10 11 11 12 12 12 12 13 12 13 15 16 18 19 20 19 19 18 18 18 18 19 19 19 16 12 8 4 1 1 3 5 8 12 17 20 20 16 13 14 15 16 16 17 17 18 19 20 21 23 26 28 31 33 35 35 34 33 32 29 26 25 24 24 24 25 25
8 8 8 8 9 9 9 9 9 9 9 10 11 12 13 11 10 9 9 9 9 10 11 12 12 12 11 10 12 14 17 19 20 20 20 19 18 18 18 19 19 20 20 17 14 9 5 2 1 2 4 8 12 17 20 20 16 13 13 14 16 16 16 17 18 19 20 21 23 26 28 31 32 33 34 33 32 30 27 24 23 22 22 23 24 24
8 8 9 8 8 8 9 9 8 8 8 9 10 10 11 9 9 9 9 9 9 10 10 10 11 11 10 9 11 14 18 20 21 21 21 19 19 18 18 19 19 20 20 18 15 10 6 3 2 1 3 7 12 17 21 20 17 13 13 14 15 16 16 17 18 19 20 22 24 26 28 30 32 33 33 32 31 30 27 24 22 21 21 21 22 23
8 8 8 8 8 7 7 7 7 7 8 8 8 9 9 8 8 8 8 8 9 9 9 9 10 10 11 10 12 15 18 20 21 22 21 19 19 18 18 19 19 20 20 18 15 11 7 3 2 1 2 7 12 17 21 21 17 13 13 14 15 16 17 17 18 19 20 22 24 25 27 29 30 32 32 32 31 29 27 25 23 21 20 20 21 22
8 8 8 8 8 7 6 6 7 7 7 7 7 8 8 8 8 8 8 8 8 8 8 8 9 9 10 11 12 14 15 17 19 20 19 18 17 17 17 18 19 19 19 18 16 12 8 4 3 2 1 6 11 17 21 21 17 13 13 14 15 16 17 18 19 19 20 22 23 24 26 27 28 29 30 31 30 28 25 24 23 23 22 21 21 22
8 8 8 8 7 7 6 6 6 6 7 7 7 7 8 8 7 7 8 8 8 7 7 8 8 8 9 9 10 11 11 13 13 14 14 14 14 15 16 17 17 17 18 17 15 12 9 5 3 2 1 5 11 17 21 21 17 13 13 14 15 16 17 18 19 20 21 22 23 24 25 25 25 26 27 27 26 25 23 23 24 24 25 23 23 23
9 9 8 8 8 7 7 5 5 6 6 6 7 7 8 8 8 7 7 8 7 7 7 7 7 8 8 8 8 9 9 10 10 10 10 9 10 11 13 14 14 15 16 16 14 11 9 5 4 3 0 5 11 17 21 21 17 13 13 15 16 16 17 18 19 20 21 22 23 24 25 25 25 24 24 23 23 22 22 22 23 25 26 26 25 25
9 9 8 8 8 7 6 6 6 6 6 6 6 7 7 8 8 8 8 8 7 7 6 7 8 8 9 8 8 8 9 10 12 13 13 12 12 12 12 12 12 12 15 14 12 10 7 5 4 3 1 5 12 18 22 20 16 12 13 15 16 17 17 18 19 19 20 22 23 24 25 25 25 24 23 22 21 21 20 21 22 23 25 26 26 26
8 8 8 8 7 6 6 5 5 5 6 6 6 6 6 6 7 8 9 9 9 8 7 7 7 8 8 8 8 8 8 8 10 12 13 13 14 14 13 13 13 13 14 13 11 8 6 5 4 4 1 6 12 18 20 18 14 11 12 14 16 17 17 18 18 19 20 20 22 23 24 25 25 25 24 23 22 21 20 21 21 22 23 24 25 26
7 6 6 6 6 6 5 5 5 5 6 6 6 6 6 6 6 6 8 9 9 9 8 7 7 7 7 7 8 8 7 7 7 8 8 9 9 9 9 10 11 12 12 10 8 6 5 5 5 4 1 6 12 17 18 14 11 10 11 13 15 16 17 18 18 18 19 19 20 21 23 24 25 25 25 24 23 22 21 21 21 21 21 22 23 24
6 6 6 6 7 6 6 5 5 5 5 5 5 6 6 6 6 6 6 8 9 9 9 8 8 7 7 7 6 6 6 6 7 7 7 6 5 4 5 6 7 7 6 6 5 5 5 4 4 4 1 6 11 14 14 10 8 9 11 12 14 15 17 17 18 18 18 18 19 20 21 23 24 24 25 24 24 23 22 21 21 21 21 22 22 23
6 6 6 7 7 6 6 6 6 5 5 5 5 6 6 6 6 6 7 8 8 8 8 8 8 7 6 6 5 4 4 6 6 7 7 7 6 5 5 5 5 4 4 3 3 4 4 3 3 3 1 5 10 12 10 7 7 9 11 12 13 15 16 17 18 18 18 18 18 19 20 21 22 23 24 24 23 23 22 21 21 20 21 21 22 23
6 7 7 7 7 6 6 6 6 6 5 5 5 6 7 7 7 7 7 8 8 8 8 8 8 7 5 4 3 3 5 5 6 7 7 7 7 7 7 7 5 4 3 3 4 4 4 3 2 3 2 4 7 9 8 6 7 10 11 12 13 14 15 17 17 18 17 17 18 18 19 20 21 22 23 23 23 23 22 21 20 19 19 20 21 23
6 6 7 7 7 7 6 6 6 6 6 6 6 6 7 7 7 7 7 8 8 7 7 7 7 7 5 3 3 4 5 6 6 7 8 8 7 7 8 8 6 4 4 4 4 4 3 2 2 3 2 3 7 8 9 6 5 9 11 12 13 14 15 16 17 17 17 17 17 18 18 20 21 21 22 22 23 23 23 22 20 19 18 18 20 21
6 6 7 7 7 7 6 6 6 6 6 6 6 6 6 7 6 6 6 7 6 6 5 6 6 6 5 4 4 4 6 7 7 7 8 8 8 7 7 8 7 5 3 3 3 3 3 2 2 3 2 2 5 8 8 5 4 8 11 13 13 14 15 16 17 18 18 18 17 18 18 19 20 21 22 22 22 22 23 23 22 20 18 18 19 20
6 6 7 7 7 7 6 6 6 5 6 6 6 6 6 7 6 6 6 6 6 6 5 5 5 5 5 5 4 5 6 7 7 8 8 9 8 8 7 7 7 6 3 3 3 3 3 2 3 3 3 3 6 8 9 5 3 7 11 13 13 14 14 15 17 18 18 18 18 18 18 19 20 21 21 21 21 21 22 22 22 21 19 18 18 19
6 6 7 7 7 6 6 6 6 5 6 6 6 7 7 7 7 6 6 6 6 6 6 6 5 5 5 6 6 6 6 7 7 7 8 8 9 8 7 7 7 6 4 3 3 3 3 3 3 4 4 4 6 8 9 6 1 5 10 13 14 14 14 15 16 17 19 19 19 19 19 19 20 21 22 22 21 21 22 22 22 22 21 19 19 19
7 7 7 6 7 7 7 6 6 6 6 6 7 7 8 7 7 6 6 6 6 6 6 6 6 6 6 7 8 8 6 6 7 7 7 8 8 8 8 7 7 6 3 3 3 4 4 3 4 4 4 4 6 8 10 7 4 3 8 11 13 14 14 15 16 17 19 19 20 20 20 20 20 21 21 22 22 22 22 23 23 22 22 20 19 19
7 8 7 6 6 6 6 5 6 7 8 8 8 8 7 7 6 6 6 6 7 7 6 6 6 6 6 8 8 8 7 6 6 6 5 6 6 7 6 6 7 6 3 2 3 4 4 3 3 4 5 4 5 6 8 8 7 5 4 8 12 15 15 15 16 17 18 19 20 20 20 20 20 20 21 21 22 22 23 23 24 24 23 21 19 18
7 8 8 8 7 7 6 7 8 9 10 9 9 7 6 6 6 7 7 7 7 7 7 7 7 7 7 8 9 9 7 6 6 5 4 5 6 7 5 6 6 6 3 2 3 4 4 4 4 4 5 6 5 5 6 7 8 8 5 5 9 13 16 16 16 17 18 19 19 20 20 21 21 21 21 21 22 22 23 24 24 25 24 22 20 18
8 8 8 8 8 7 7 7 8 8 9 9 8 7 5 6 6 7 7 7 7 7 8 8 8 8 8 8 8 8 7 6 5 4 4 4 6 6 5 5 6 5 3 2 4 4 4 4 4 4 6 6 5 4 4 6 8 9 8 4 5 10 15 17 17 17 18 18 19 20 20 21 21 22 22 22 22 22 23 23 24 25 24 23 21 19
8 8 8 7 7 6 7 7 7 7 7 7 7 7 6 6 7 7 7 7 7 7 7 7 8 8 7 8 8 7 6 5 4 3 3 4 5 6 6 6 6 6 4 2 4 5 5 5 4 4 5 6 6 4 4 5 8 10 9 6 3 6 12 16 18 18 18 18 19 19 20 20 21 21 22 22 23 23 23 23 24 24 24 23 22 20
8 8 7 7 8 9 9 9 9 9 8 8 7 7 7 7 8 8 7 7 7 7 7 7 7 7 7 7 7 6 4 3 3 3 3 4 5 6 7 6 6 5 4 1 3 5 5 5 5 4 4 5 5 5 4 5 7 9 9 8 5 3 8 13 16 18 18 18 18 19 19 19 20 20 21 21 22 22 23 23 23 23 23 23 22 20
11 11 11 12 14 16 17 17 16 15 14 11 9 7 7 7 7 7 6 6 6 6 6 7 7 7 6 5 5 4 4 4 4 4 4 3 4 6 6 6 5 5 4 2 2 5 5 5 5 5 4 4 4 4 4 5 7 9 9 8 6 3 4 10 14 17 18 18 18 18 18 18 18 19 19 20 20 21 21 22 22 22 22 21 20 20
16 16 17 18 18 18 18 18 18 18 17 15 13 10 8 7 6 6 6 5 5 5 6 6 7 7 6 5 5 4 4 4 3 3 4 4 4 4 4 5 6 6 5 2 2 4 5 5 5 5 4 4 4 4 5 6 7 8 9 8 7 5 3 6 11 15 17 18 18 18 18 18 18 18 18 18 19 19 20 20 20 20 19 17 16 16
16 16 16 16 16 16 16 16 15 15 15 15 15 14 10 7 6 5 5 4 4 5 6 6 6 6 5 6 6 5 5 3 2 3 4 4 4 4 4 6 7 7 6 2 1 3 4 5 5 5 5 4 4 4 4 6 7 8 8 8 7 6 4 4 8 12 15 17 18 18 18 18 18 18 18 18 18 18 19 20 20 19 17 13 11 9
14 14 15 15 15 15 14 13 13 13 13 14 14 12 9 6 5 4 4 4 4 5 6 6 6 6 5 6 6 6 5 2 2 4 5 4 4 4 4 6 7 7 6 3 0 2 3 3 4 4 4 4 4 4 4 5 5 6 7 7 7 6 5 3 6 10 14 15 17 17 18 18 18 18 18 18 18 18 19 19 18 16 13 10 9 8
10 11 12 12 12 12 11 10 10 10 12 12 12 11 8 5 4 4 4 4 4 5 6 6 6 5 5 6 6 4 2 1 3 5 6 5 4 4 5 5 6 6 5 3 1 1 2 2 3 4 4 4 4 3 4 4 4 4 4 5 6 6 5 3 4 9 13 15 16 17 18 18 18 18 18 18 18 19 19 18 16 12 9 9 8 8
9 9 8 8 8 8 8 7 7 8 9 10 10 8 6 5 4 4 4 4 4 5 5 5 5 5 5 4 4 3 2 2 4 5 6 4 4 4 5 5 6 6 6 4 2 1 2 2 3 3 3 4 4 4 4 4 3 3 3 3 4 4 5 3 3 7 11 14 16 17 18 18 18 18 18 19 19 19 19 17 14 11 8 8 8 8
8 7 7 6 6 6 6 6 6 6 6 6 6 6 5 5 4 4 4 4 4 4 5 5 5 5 5 4 4 3 3 3 5 6 6 4 3 4 5 5 6 6 6 5 3 2 1 2 2 2 2 3 3 4 4 4 4 3 3 3 3 3 3 2 2 5 9 13 15 17 18 18 18 19 19 19 19 19 19 17 14 11 8 8 8 8
7 6 6 6 5 5 5 5 5 5 5 5 5 5 5 5 5 5 4 4 4 5 5 5 5 5 5 5 5 5 5 5 5 7 7 5 3 3 4 5 6 6 6 6 5 3 1 1 2 2 2 2 3 3 4 4 4 4 3 3 3 3 3 2 1 3 6 9 12 14 16 17 18 18 18 19 19 19 19 17 15 12 9 8 8 8
7 6 6 5 5 5 5 5 5 5 5 4 5 5 5 5 5 5 5 4 4 5 5 5 5 5 5 5 5 5 6 5 6 7 7 5 4 3 4 5 5 6 6 6 5 4 2 1 2 2 2 2 2 3 3 4 4 4 3 3 3 3 2 2 0 2 4 6 8 10 12 13 14 16 17 18 18 18 18 17 15 13 11 9 8 8
6 6 6 5 5 5 5 5 5 5 5 5 5 5 5 5 5 5 5 5 5 5 5 5 5 5 5 5 5 5 6 6 6 7 7 5 4 3 4 4 4 5 5 5 5 5 3 2 1 3 3 3 2 2 3 4 4 4 3 4 4 3 2 2 1 1 2 4 5 7 8 8 10 11 12 14 16 17 17 17 16 14 13 11 10 9
6 6 6 5 5 5 5 5 5 5 5 5 5 5 5 5 5 5 5 5 5 5 6 6 6 6 5 6 6 7 7 7 7 7 7 6 5 4 3 3 4 4 4 5 5 4 4 3 1 2 4 3 3 2 3 3 4 4 3 4 5 5 4 3 2 1 2 3 4 5 6 6 7 8 9 12 14 16 17 17 16 16 15 13 12 10
6 5 5 5 5 5 6 5 5 5 5 5 5 5 5 5 5 5 5 5 5 6 6 7 7 7 8 7 7 7 8 8 8 8 8 6 5 4 4 3 4 4 4 4 4 4 4 4 2 1 4 3 3 2 3 3 3 3 4 5 5 5 5 4 3 3 3 3 4 4 5 5 6 7 8 12 13 15 16 16 16 16 16 15 14 12
6 6 6 5 5 5 5 5 5 5 5 5 6 6 6 6 6 6 6 6 6 6 7 6 7 8 10 10 10 10 10 10 10 10 10 8 6 5 5 4 4 4 4 4 4 4 4 4 2 1 3 3 3 3 3 3 3 3 4 5 6 6 5 5 4 4 4 4 4 4 5 6 6 7 8 9 10 10 10 11 12 13 14 14 14 14
6 6 6 6 6 6 6 6 6 6 6 6 6 6 7 7 7 7 6 6 6 7 7 6 6 7 9 10 11 12 12 12 12 11 11 9 7 6 6 5 5 4 4 4 4 4 4 3 3 2 2 4 4 4 3 3 4 4 4 5 5 5 5 4 4 4 4 5 5 5 5 5 6 7 7 7 7 8 8 8 9 10 11 10 11 13
6 6 6 7 6 6 6 6 6 6 6 6 7 7 7 6 6 6 6 6 6 6 6 6 6 6 7 8 9 10 10 9 9 9 9 8 7 6 6 5 5 4 4 4 4 4 4 4 4 3 2 2 4 4 3 3 4 4 5 4 4 3 4 4 4 4 5 5 5 5 4 5 6 7 7 7 7 7 7 7 7 8 9 9 9 9
7 6 6 6 6 6 7 7 6 6 6 6 6 6 6 5 5 5 5 5 5 5 5 5 5 5 5 6 6 7 7 6 6 6 6 7 6 6 5 5 5 4 4 4 4 4 5 5 4 3 2 1 4 5 4 4 5 5 5 4 4 3 4 4 4 4 6 6 7 6 6 6 6 7 7 7 6 6 6 7 8 8 8 7 8 9
7 7 6 6 6 6 6 6 7 7 7 6 5 5 5 5 5 5 5 5 5 5 5 5 5 5 5 4 4 3 3 4 5 6 7 7 7 5 5 5 4 4 4 5 5 5 5 5 4 3 2 0 3 4 4 4 5 6 6 5 5 5 6 6 5 5 7 7 8 8 8 7 6 6 7 7 7 6 6 7 8 9 8 7 7 8
7 6 6 6 6 6 7 7 7 6 6 5 5 5 5 5 5 5 5 5 5 5 5 5 5 5 4 4 4 4 3 3 4 6 7 7 7 5 4 4 4 3 3 4 5 5 5 4 3 3 3 1 2 4 5 5 5 5 5 5 5 5 4 4 4 5 7 8 8 8 8 7 6 6 7 7 6 6 6 6 7 7 7 8 8 8
6 6 6 6 6 6 6 6 6 6 5 5 5 5 5 5 6 6 5 5 5 5 5 5 4 4 4 4 4 5 4 4 5 6 7 8 8 7 3 3 3 3 3 4 4 5 5 4 4 3 3 2 3 5 5 5 5 5 3 3 4 5 5 4 4 5 7 8 8 8 7 6 6 6 7 7 7 6 6 5 5 5 5 6 7 8
6 6 6 6 6 6 6 6 6 6 5 5 5 6 6 6 6 6 5 5 5 5 5 5 4 3 3 4 4 4 4 4 5 5 6 8 10 10 7 3 1 2 3 3 3 4 4 4 4 4 4 3 4 5 5 5 5 4 3 5 6 8 7 6 5 6 7 8 8 7 6 6 6 7 8 8 7 7 6 6 6 6 5 6 7 8
6 6 6 6 6 6 7 7 6 6 6 6 6 6 6 6 6 6 6 6 5 5 5 5 4 3 3 4 4 4 5 5 5 5 5 7 8 8 7 6 5 3 2 3 3 4 5 5 5 4 4 4 5 5 4 4 4 5 5 7 8 8 7 7 6 6 7 8 8 7 6 6 7 7 7 7 7 7 6 6 6 6 5 6 6 7
7 7 7 6 6 6 7 7 7 6 6 6 6 6 6 6 6 6 6 6 6 6 5 5 4 4 4 4 4 5 5 6 6 6 6 6 6 7 6 5 4 4 4 4 6 7 8 8 8 7 6 5 5 5 5 4 4 4 5 6 7 7 7 6 5 5 6 7 7 7 6 6 7 7 7 7 7 6 6 6 6 6 5 5 6 7
7 7 7 7 7 7 7 7 7 7 7 7 6 6 7 7 7 7 6 6 6 6 6 5 5 5 5 5 5 5 6 6 6 6 6 6 6 6 6 5 3 3 3 5 6 8 10 11 12 11 9 6 5 4 4 4 4 4 4 5 6 7 7 6 5 5 5 6 6 6 6 6 7 7 6 7 6 6 6 6 6 6 5 5 5 6
7 7 7 7 7 7 7 7 7 7 7 7 7 7 6 7 9 9 7 6 6 6 6 6 6 6 5 5 6 6 6 6 6 5 6 6 6 6 6 5 4 3 2 3 4 7 9 11 13 13 11 9 7 5 4 4 4 4 4 5 6 7 7 6 5 4 4 5 6 6 6 6 7 7 7 8 7 7 6 6 6 6 6 5 5 5
7 7 7 7 7 7 7 7 8 8 8 8 7 7 7 7 7 7 7 6 6 6 6 6 6 6 6 6 6 6 6 6 6 5 6 5 6 6 5 5 5 4 2 1 2 4 5 7 9 12 15 14 12 8 5 5 4 5 5 5 5 6 6 6 5 4 4 5 6 7 7 7 6 6 7 8 8 8 7 6 6 6 5 5 5 5
8 8 8 7 8 8 8 8 8 8 8 8 8 7 7 7 7 7 7 7 7 6 6 6 6 6 6 6 6 6 6 6 6 6 6 6 6 6 6 5 5 4 2 1 1 2 3 3 5 7 12 16 17 14 7 5 4 4 5 5 4 5 5 5 5 4 5 6 6 6 7 7 7 6 6 7 7 7 7 6 6 5 5 5 5 7
Wind_Direction
304 307 308 308 306 304 302 306 310 313 315 316 316 314 313 313 312 310 310 308 304 301 297 293 289 285 281 280 281 283 285 287 288 289 289 290 291 293 295 297 298 298 297 291 280 261 235 266 325 339 340 333 326 320 315 303 284 250 211 197 193 193 195 195 196 196 197 198 200 203 205 206 207 207 207 205 203 199 194 187 182 181 182 183 184 186
306 306 306 307 306 305 303 309 313 316 317 315 314 312 313 313 312 311 310 307 306 304 303 301 298 295 291 287 284 284 286 286 286 286 287 288 290 292 294 294 295 295 295 289 279 261 237 246 335 345 340 331 323 318 313 302 284 252 213 200 194 193 194 194 194 194 194 194 196 199 202 205 206 207 207 206 204 201 197 189 185 183 183 185 186 188
308 307 307 307 307 306 305 311 314 316 316 313 312 311 312 312 312 310 309 308 306 306 305 305 303 301 298 295 291 289 289 289 289 288 289 290 290 291 292 292 292 292 292 287 278 261 230 217 7 355 341 328 320 315 312 302 285 254 216 200 194 193 193 193 193 193 192 192 194 197 201 205 207 207 208 207 205 203 199 192 187 184 184 186 187 189
309 308 309 308 306 305 304 309 313 315 314 311 310 310 311 311 310 307 304 302 301 301 301 301 301 301 300 299 297 295 294 293 293 292 291 291 290 290 290 289 289 289 290 285 277 263 228 191 100 14 340 324 317 313 310 302 287 257 218 201 193 191 191 191 191 191 191 191 193 196 200 204 207 208 208 207 206 205 202 195 189 184 184 186 187 189
309 309 309 307 304 302 304 308 312 314 313 310 310 311 312 309 306 303 300 299 298 299 300 301 300 299 297 296 295 296 296 296 295 293 292 290 288 287 287 286 286 286 287 283 276 262 231 191 127 52 341 319 313 309 308 301 287 258 218 201 192 189 188 189 189 189 189 189 191 194 198 202 206 208 207 206 206 205 204 200 194 187 184 185 186 187
308 307 305 303 301 301 304 308 312 314 313 311 311 311 310 306 303 300 300 301 302 303 302 300 298 296 294 292 293 295 297 296 295 293 290 287 285 284 283 283 283 283 283 280 274 260 229 187 137 87 342 313 307 305 304 300 287 259 220 200 191 187 186 187 187 188 188 188 189 191 194 198 202 204 205 205 204 204 203 201 197 191 185 184 185 186
304 302 301 299 298 299 301 307 312 315 315 313 312 311 309 305 302 300 301 304 305 304 301 297 294 293 293 293 295 297 298 297 294 290 287 284 281 280 279 279 279 279 280 278 272 259 231 191 145 109 340 305 301 299 299 296 284 257 219 200 190 185 184 185 186 187 187 187 188 190 192 195 198 201 201 202 202 201 201 199 196 192 188 186 186 187
300 299 299 298 298 298 299 305 311 315 316 315 313 312 310 307 305 304 306 306 304 302 299 298 297 296 295 296 297 299 299 297 294 290 285 281 278 277 276 276 276 277 277 275 269 258 233 204 162 129 346 297 294 294 295 293 282 255 218 199 189 185 183 184 185 186 187 188 189 190 192 194 196 197 197 197 197 198 197 195 194 192 190 188 189 190
298 299 300 298 298 299 300 304 310 314 315 313 311 310 308 309 310 312 314 312 308 306 304 305 304 302 299 297 297 297 297 294 291 288 284 278 274 273 273 275 276 276 276 274 268 255 232 200 165 143 199 286 288 289 290 289 278 252 215 198 189 184 182 183 183 185 187 188 190 191 193 194 195 196 195 193 192 192 192 192 192 192 190 189 190 193
296 297 299 298 297 297 300 305 310 313 313 309 306 304 304 311 316 319 319 316 314 311 310 309 307 305 303 302 300 298 295 291 287 285 281 274 269 268 269 272 273 274 273 272 266 253 225 188 155 138 166 278 282 284 286 284 273 246 211 195 187 182 181 180 181 183 185 187 189 191 192 193 194 194 193 191 189 188 188 189 191 192 191 190 191 194
297 298 298 297 296 296 298 304 309 312 313 310 307 305 307 315 320 321 318 316 315 314 312 309 306 304 304 305 303 300 296 292 288 284 278 271 267 267 267 266 264 263 264 265 260 247 213 175 147 134 157 276 280 281 283 279 266 237 207 193 185 180 178 178 178 179 181 184 187 189 191 192 192 193 192 190 187 186 185 187 189 190 191 190 191 193
298 299 299 297 297 298 301 305 308 311 314 314 315 315 316 321 321 317 314 312 312 313 312 309 304 301 299 300 300 300 300 298 294 287 278 267 262 261 263 259 255 252 253 253 247 231 201 166 138 122 151 279 280 281 280 273 255 225 202 191 184 179 176 175 175 175 177 180 183 186 188 190 190 190 190 188 186 184 184 185 187 189 189 189 190 191
298 299 299 297 298 300 305 309 312 315 319 321 321 320 318 318 317 313 309 307 307 309 310 307 303 298 294 291 291 295 306 310 310 306 301 292 280 266 260 253 243 236 233 235 227 211 196 165 131 112 107 282 282 282 280 266 240 212 197 190 183 178 175 173 172 172 172 174 178 181 185 186 187 186 186 183 181 180 179 182 185 187 189 188 189 189
300 301 300 298 299 302 307 312 315 317 320 321 320 317 314 313 313 311 309 306 306 306 305 303 301 299 295 285 285 300 327 325 322 317 314 311 309 304 289 270 251 229 208 210 205 200 196 183 145 112 88 285 284 284 283 262 225 201 193 188 183 179 175 173 171 170 169 169 172 175 179 180 181 180 179 177 175 173 172 175 179 183 186 187 188 189
303 303 300 299 300 303 308 312 314 315 317 318 316 312 309 309 311 312 311 309 307 306 305 304 304 302 297 286 302 343 351 338 328 321 315 309 307 306 301 289 275 247 206 201 197 194 192 190 145 106 82 292 291 293 296 266 213 191 190 187 183 180 176 174 171 169 167 167 168 170 174 176 176 175 174 171 169 167 166 168 172 176 180 183 185 187
302 301 298 298 300 302 307 311 313 314 315 315 314 312 310 311 312 312 310 307 306 307 310 314 315 313 304 306 337 2 360 346 334 324 315 306 301 299 297 292 284 263 217 199 190 188 188 178 129 102 85 300 298 300 304 283 220 190 186 184 182 180 177 175 172 170 167 166 167 168 170 172 173 172 171 169 166 164 163 164 166 169 173 177 182 185
299 297 296 297 298 301 306 309 310 311 312 312 311 311 310 309 308 306 305 304 304 308 315 320 321 319 314 316 332 355 2 348 334 320 312 303 298 293 290 289 283 269 229 197 184 183 180 166 130 108 97 315 308 309 310 287 222 190 182 180 180 179 177 175 172 170 168 167 167 167 169 170 171 171 170 169 167 165 164 164 164 166 169 175 180 184
297 296 295 296 297 300 304 306 308 309 309 310 312 312 309 304 302 302 303 305 307 311 317 318 317 314 312 311 320 340 355 342 329 317 309 301 295 291 287 284 279 270 238 195 175 172 170 157 130 108 89 349 329 324 322 311 238 188 179 178 178 178 177 174 171 169 168 169 169 169 169 170 170 170 169 169 168 167 166 165 165 165 167 173 180 185
297 296 295 295 297 299 301 303 306 308 311 314 314 312 306 303 302 304 307 309 310 312 315 314 310 306 303 301 307 319 336 330 320 310 304 297 294 291 290 285 278 268 242 192 168 162 158 144 117 98 79 24 351 338 333 333 304 175 174 174 175 176 176 173 171 169 168 169 170 171 171 171 170 170 169 169 169 168 168 166 165 165 165 170 177 184
298 296 294 295 297 297 296 298 302 308 313 314 311 306 300 301 304 308 311 311 310 310 310 308 306 304 303 300 301 307 319 319 312 303 296 291 289 289 289 289 285 275 244 192 167 158 149 139 118 95 70 41 6 347 340 348 8 127 161 169 173 174 175 173 170 168 167 169 170 171 172 173 172 171 170 169 169 169 168 167 166 165 165 167 173 180
295 291 289 291 293 294 293 298 304 308 310 308 303 298 295 300 307 311 313 311 309 308 308 306 304 303 302 298 298 299 306 307 302 296 292 289 287 286 288 291 291 285 256 194 164 152 143 137 123 106 89 64 28 0 350 0 22 59 121 160 170 174 175 174 170 168 166 167 169 171 173 174 174 173 172 170 169 169 168 168 167 166 166 167 170 175
288 285 285 286 287 289 292 298 302 304 302 298 294 292 296 306 311 312 311 309 308 307 307 304 300 297 295 291 290 290 290 285 283 284 290 290 288 286 287 290 290 284 261 187 155 144 138 133 122 110 101 86 60 22 2 14 31 46 63 132 164 172 175 175 171 167 164 164 166 168 172 174 176 176 175 172 171 169 168 168 168 168 168 168 169 171
279 280 283 284 285 286 290 293 294 293 290 286 286 290 301 307 308 306 305 303 303 302 300 297 293 290 286 283 283 282 278 269 265 268 278 285 288 290 292 292 292 287 266 179 151 142 137 132 123 110 99 88 75 48 16 25 39 47 50 74 145 169 174 174 172 168 163 161 162 165 168 172 175 176 176 175 173 171 169 168 168 169 170 170 170 171
278 279 281 282 283 283 283 283 281 279 278 280 285 291 296 297 295 294 293 294 294 294 293 293 293 292 289 286 283 280 276 268 264 267 279 282 286 289 294 296 297 294 284 187 150 143 141 134 125 112 99 87 80 67 45 43 49 52 47 50 94 159 171 173 172 169 165 162 160 161 164 168 171 174 175 175 174 172 170 169 169 170 171 173 174 175
282 282 284 285 284 282 280 279 279 281 283 287 291 294 294 292 290 288 287 288 288 290 294 298 299 299 297 293 289 287 289 308 327 332 316 299 293 293 295 297 298 298 296 229 151 143 140 132 124 113 101 91 83 75 63 59 58 56 50 44 52 119 163 169 170 170 167 164 162 161 161 163 166 168 170 171 171 170 169 168 169 170 171 174 176 178
295 295 295 293 292 291 291 292 292 294 296 296 297 296 295 293 291 289 288 289 294 300 305 305 303 300 298 295 294 299 314 335 349 351 334 310 298 295 294 295 298 299 299 266 161 143 136 128 123 117 108 97 88 80 74 71 68 65 57 48 46 64 141 163 167 168 168 166 164 162 161 161 161 162 163 163 164 164 163 163 164 166 168 171 176 180
305 303 302 301 300 300 301 301 301 300 300 299 298 296 295 294 293 291 291 298 307 312 310 305 302 300 299 300 304 309 315 320 335 345 336 308 294 290 295 304 308 308 302 272 173 140 126 122 119 116 110 104 95 86 78 76 74 70 64 53 46 48 93 149 160 164 165 166 165 164 163 161 160 158 156 155 154 153 152 152 153 155 158 162 170 179
311 309 308 307 306 306 306 306 306 305 304 302 300 299 300 299 297 295 297 309 313 310 302 300 301 303 306 309 309 306 301 303 335 352 337 310 293 289 302 315 316 313 307 288 178 130 110 113 114 112 109 106 101 92 82 77 75 71 65 56 47 42 54 123 150 157 160 163 164 164 164 162 160 158 155 151 148 145 143 141 141 142 145 148 156 170
313 311 309 309 309 310 311 312 311 310 307 304 304 305 308 305 301 299 305 312 309 302 295 296 300 304 308 309 306 299 282 293 2 2 340 318 301 297 312 319 319 316 312 305 260 119 91 103 111 114 113 113 109 101 88 79 75 71 64 57 49 42 40 89 138 149 153 157 159 160 161 161 160 158 155 152 147 143 140 137 136 136 137 139 143 151
312 310 309 310 310 312 313 313 311 308 307 307 309 312 315 310 305 302 307 306 301 296 294 297 300 304 309 309 306 300 281 19 25 9 348 330 316 311 319 318 319 320 320 317 323 92 83 85 97 109 119 122 121 112 99 88 81 73 66 59 51 43 33 58 125 143 147 150 153 155 157 158 158 157 156 153 149 145 141 139 137 135 135 134 135 139
310 309 307 308 309 311 312 310 308 307 308 310 312 315 315 310 306 303 302 299 296 294 293 295 298 302 307 310 308 306 308 352 3 1 352 334 319 314 319 318 320 322 324 319 322 20 98 88 88 100 122 130 128 120 109 100 91 81 73 66 57 45 28 34 110 138 143 146 148 150 152 153 155 155 155 153 150 147 144 142 140 137 135 134 134 136
309 307 306 307 309 311 312 312 311 309 309 311 312 312 311 309 306 303 299 298 295 292 290 291 292 295 297 296 293 292 297 313 334 344 345 331 315 309 317 318 319 319 319 310 306 309 90 102 103 111 142 140 131 122 116 106 95 85 77 70 62 48 23 19 100 135 140 143 144 146 147 149 151 152 153 152 150 148 146 145 143 140 138 137 136 137
309 308 307 310 313 315 316 315 313 311 311 312 313 313 312 310 305 301 297 295 291 287 285 287 288 290 290 286 282 280 282 292 314 330 338 329 316 308 315 318 318 318 317 312 308 309 354 88 107 125 152 140 126 117 114 105 96 88 80 74 63 48 19 5 82 137 140 142 142 143 143 145 146 148 149 148 147 146 145 144 143 142 140 139 138 137
312 312 314 317 319 320 319 318 316 315 315 315 314 313 311 307 302 298 294 288 283 279 278 280 283 285 286 284 282 280 280 286 305 322 333 326 316 308 312 315 318 321 323 323 323 325 340 43 109 132 133 121 107 101 105 101 95 88 81 76 66 50 18 355 20 133 138 140 141 140 140 140 141 142 143 144 144 144 143 142 141 140 139 139 139 139
317 319 323 325 325 324 322 322 321 320 319 317 315 312 308 304 299 295 291 285 279 275 272 271 271 273 276 278 280 280 282 287 302 314 320 318 313 308 308 311 319 325 328 330 331 332 334 339 135 142 123 108 95 91 98 99 96 90 81 74 66 53 22 359 15 100 120 129 132 134 136 137 138 139 139 140 140 140 140 138 138 137 137 138 139 140
324 327 330 330 329 327 326 325 324 322 321 318 314 310 306 301 296 292 288 283 278 275 271 266 263 261 261 264 268 273 278 284 294 302 305 306 307 305 302 305 316 325 326 329 332 333 327 315 275 142 120 108 100 96 99 102 101 95 83 73 64 53 31 14 18 54 85 102 114 122 128 130 132 133 134 134 134 133 133 133 133 133 133 135 136 137
330 332 333 332 331 330 328 327 325 323 321 318 314 310 305 300 295 290 285 279 273 270 268 265 261 257 254 254 257 262 270 277 284 288 290 291 291 290 286 290 301 310 315 318 323 327 323 310 304 123 119 111 105 103 106 110 108 99 84 70 64 55 37 21 24 43 65 74 89 105 117 122 123 124 125 126 126 125 125 125 125 125 126 127 128 130
335 336 336 335 334 332 329 326 324 322 320 316 312 308 304 299 294 290 286 278 270 265 262 260 259 257 254 254 254 256 261 267 272 275 277 276 275 273 272 277 284 290 293 297 304 311 314 307 314 34 115 110 105 104 109 113 111 100 84 70 65 59 43 30 32 45 60 65 73 85 101 111 116 119 121 122 121 120 120 119 118 117 116 115 116 117
339 339 338 338 337 333 329 325 321 319 316 312 309 305 302 299 295 291 287 282 275 268 262 259 258 256 255 255 256 257 260 263 265 267 267 264 261 259 262 268 275 279 279 278 282 288 293 296 309 338 88 112 111 108 106 109 109 105 94 79 69 59 46 35 35 43 58 64 68 74 86 101 110 116 119 121 121 120 121 119 118 116 114 110 107 106
340 340 339 338 336 332 326 321 318 315 312 308 306 305 303 302 300 297 292 290 287 284 279 273 268 262 260 259 259 259 259 260 261 262 262 256 250 245 248 256 265 274 279 275 272 271 274 278 288 303 333 123 122 117 114 115 116 115 107 93 79 63 50 42 42 49 60 63 63 65 72 86 97 105 109 112 115 117 120 120 120 119 119 118 115 110
340 340 339 336 332 328 322 317 314 312 311 309 309 308 309 309 309 308 306 305 305 304 302 298 290 282 274 267 263 262 261 265 271 276 281 274 261 248 241 247 255 267 280 279 274 269 266 271 279 289 303 136 125 120 119 120 116 109 100 99 99 92 74 60 57 59 65 63 59 57 59 69 78 85 91 93 96 101 109 116 118 119 118 121 123 124
339 339 336 333 329 325 320 317 315 315 315 313 313 313 315 316 316 316 317 320 320 320 320 318 313 308 303 298 291 287 287 293 302 307 306 299 287 267 245 243 248 260 276 283 282 277 272 276 286 300 312 98 124 124 123 117 108 102 101 113 115 105 82 65 58 61 69 65 59 54 53 58 66 73 77 79 78 79 85 101 111 116 119 121 124 127
336 334 332 329 326 322 319 319 320 322 323 322 321 321 322 321 321 321 323 325 326 326 325 322 319 316 318 325 328 326 319 315 317 319 320 317 310 296 259 248 247 256 272 286 292 293 293 298 309 323 324 9 103 119 119 111 106 107 118 130 125 110 91 70 58 60 68 68 63 57 51 53 58 65 69 68 65 62 61 74 88 102 114 121 123 124
330 329 329 329 327 325 326 329 330 330 329 328 328 328 328 327 326 327 328 329 329 329 329 325 322 322 331 337 336 331 326 326 328 331 332 335 336 334 308 258 240 240 254 274 291 304 313 324 338 346 344 24 81 102 107 107 110 115 123 114 99 92 92 91 82 76 74 72 68 63 56 55 60 67 69 64 59 54 50 55 64 75 89 106 113 116
328 330 334 335 335 335 336 336 335 334 334 334 335 335 334 333 333 335 337 335 334 334 333 330 329 336 350 350 343 337 332 334 336 338 338 342 345 347 346 335 295 243 249 274 299 319 333 344 351 357 3 37 69 89 101 108 112 112 103 86 81 81 82 85 87 87 86 83 78 72 62 58 63 68 70 64 58 52 48 52 57 65 74 89 102 110
335 338 341 341 341 341 341 340 339 339 340 341 342 342 341 340 340 341 343 342 340 338 336 337 343 354 2 357 351 345 342 343 344 345 344 345 347 349 352 358 4 6 352 358 6 12 17 15 10 8 18 44 57 64 71 89 101 104 99 93 90 88 84 80 82 87 93 93 91 86 77 67 64 65 69 67 62 54 46 47 51 58 67 84 99 109
341 343 345 345 345 345 344 344 343 344 345 346 347 347 346 345 346 347 348 347 345 342 341 345 352 1 7 5 0 355 352 351 348 346 345 345 345 345 344 352 6 20 32 42 45 45 43 35 27 22 26 44 53 52 44 52 72 92 102 101 98 94 87 81 80 84 91 96 100 102 98 83 74 70 71 72 69 60 49 44 43 46 52 72 92 105
344 346 347 347 347 348 347 347 348 348 349 349 349 349 349 351 352 353 351 350 349 348 348 351 356 1 6 7 5 2 360 356 351 348 345 343 342 340 337 334 342 5 31 52 60 61 57 49 41 34 29 34 42 48 43 41 50 67 86 94 96 94 90 86 83 83 86 93 100 106 106 99 94 89 82 77 72 64 55 48 43 40 38 55 81 100
347 349 350 350 351 351 351 350 350 351 351 351 350 350 351 353 356 357 354 353 352 352 353 355 356 359 3 5 5 3 2 358 354 349 346 343 340 338 335 331 328 330 353 45 63 67 65 58 51 43 35 32 32 35 39 41 45 54 66 80 89 94 96 93 89 85 85 89 92 94 96 100 102 101 93 83 77 71 62 55 48 41 35 43 64 89
351 352 353 353 354 355 353 352 352 352 352 352 352 352 352 355 357 358 356 356 356 357 356 356 357 359 1 1 2 2 2 358 354 350 347 343 339 337 334 332 328 322 317 354 48 63 66 60 52 44 36 32 29 27 31 36 45 55 63 70 81 91 97 95 90 84 84 88 90 91 93 96 97 97 92 87 82 76 68 62 54 45 36 43 59 78
354 355 356 356 357 357 355 354 354 354 353 353 353 353 354 356 358 359 358 360 0 360 358 357 358 359 1 0 1 1 1 358 355 351 346 341 337 335 333 331 328 323 318 341 29 52 61 59 49 38 30 26 24 24 26 27 39 57 66 67 74 84 92 93 90 86 85 88 91 93 95 95 95 95 95 93 88 81 72 68 60 52 43 52 67 80